Location: Columbia
(38.9520°N, 92.3340°W)
Time: 22:34:19
(UTC-06:00)

Meteor 1-4 Rocket - Visible Passes

Search period start: 11 December 2017 00:00
Search period end: 21 December 2017 00:00
Orbit: 453 x 507 km, 81.2° (Epoch: 11 December)

Date Brightness Start Highest point End Pass type
(mag) Time Alt. Az. Time Alt. Az. Time Alt. Az.
11 Dec 2.9 06:38:59 10° SSW 06:42:37 47° WNW 06:46:18 10° N visible
11 Dec 5.5 18:06:23 10° NW 18:09:07 20° W 18:11:48 10° SW visible
12 Dec 2.6 06:12:41 10° S 06:16:27 83° W 06:20:16 10° N visible
12 Dec 4.5 17:39:46 10° NNW 17:43:06 33° W 17:46:21 10° SSW visible
13 Dec 3.4 05:46:40 10° S 05:50:21 55° E 05:54:05 10° NNE visible
13 Dec 3.3 17:13:24 10° NNW 17:17:01 59° W 17:20:32 10° S visible
14 Dec 4.5 05:20:54 10° SSE 05:24:17 32° E 05:27:41 10° NNE visible
15 Dec 5.3 04:55:29 10° SE 04:58:15 20° E 05:01:03 10° NE visible
15 Dec 3.8 06:30:08 10° SW 06:33:12 23° WNW 06:36:18 10° NNW visible
16 Dec 6.0 04:30:46 10° ESE 04:32:16 12° E 04:33:47 10° ENE visible
16 Dec 3.1 06:03:26 10° SSW 06:06:58 38° WNW 06:10:32 10° N visible
16 Dec 5.6 17:31:05 10° NW 17:33:21 16° W 17:35:35 10° SW visible
17 Dec 2.5 05:37:02 10° SSW 05:40:47 66° W 05:44:34 10° N visible
18 Dec 4.5 05:10:53 10° S 05:19:02 - NNE 05:12:20 22° S visible
